Location: Ch�teau-Arnoux
(44.0814°N, 6.0027°E)
Time: 10:53:18
(UTC+00:00)

Cosmos 1605 Rocket - Pass Details

Date: 15 November 2019
Orbit: 944 x 1006 km, 82.9° (Epoch: 10 December)

Event Time Altitude Azimuth Distance (km) Brightness Sun altitude
Rises 04:23:58 0° 199° (SSW) 3,665 6.9 -22.7°
Reaches altitude 10° 04:26:32 10° 204° (SSW) 2,712 6.1 -22.2°
Maximum altitude 04:32:37 56° 282° (WNW) 1,138 4.0 -21.2°
Drops below altitude 10° 04:38:39 10° 0° (N) 2,691 6.2 -20.1°
Sets 04:41:13 0° 5° (N) 3,635 7.0 -19.6°
